Location: Glencliff
(36.1226°N, 86.7183°W)
Time: 19:05:56
(UTC+00:00)

SL-16 R/B - Pass Details

Date: 25 August 2019
Orbit: 842 x 846 km, 71.0° (Epoch: 14 October)

Event Time Altitude Azimuth Distance (km) Brightness Sun altitude
Rises 04:26:31 0° 339° (NNW) 3,410 6.3 -39.1°
Reaches altitude 10° 04:28:58 10° 340° (NNW) 2,472 5.3 -39.4°
Enters shadow 04:31:15 25° 342° (NNW) 1,639 4.1 -39.6°
